CAS500-1

Last updated on Thu Apr 22 2021 00:02:03 GMT+0000 (Coordinated Universal Time)

1 47932U 21022A 21111.52824454 .00001959 00000-0 90448-4 0 9995 2 47932 97.3991 14.7230 0012331 151.4413 333.2959 15.21333174 4605
UTC large
Height (km)
Speed (km/s)
/
Latitude / Longitude
Inclination (degrees)
Orbital Period (minutes)
Azimuth
Elevation
Range (km)
Doppler Factor

Next 0 passes for location: London (51.5072 / 0.1276)

Sorry there are no passes over London.
CAS500-1